Regional Weather Roundup
Issued by NWS

Home | Current Version | Previous Version | Graphics & Text | Print | Product List | Glossary On
Versions: 1 2 3 4 5 6 7 8 9 10 11 12 13 14 15 16 17 18 19 20 21 22 23 24 25 26 27 28 29 30 31 32 33 34 35 36 37 38 39 40 41 42 43 44 45 46 47 48 49 50
000
ASUS43 KMKX 280020
RWRWI

WISCONSIN REGIONAL WEATHER ROUNDUP
NATIONAL WEATHER SERVICE MILWAUKEE/SULLIVAN WI
600 PM CST TUE JAN 27 2015

NOTE: "FAIR" INDICATES FEW OR NO CLOUDS BELOW 12,000 FEET WITH NO
SIGNIFICANT WEATHER AND/OR OBSTRUCTIONS TO VISIBILITY.

WIZ001-002-006>008-014>016-023>028-280100-
NORTHWEST WISCONSIN

CITY           SKY/WX    TMP DP  RH WIND       PRES   REMARKS
SUPERIOR ARPT  CLOUDY    29  24  82 S5        30.15F WCI  24
6HR MIN TEMP:  29; 6HR MAX TEMP:  31;

ASHLAND        CLOUDY    29  21  72 S5        30.17S WCI  24
6HR MIN TEMP:  29; 6HR MAX TEMP:  30;

HAYWARD        CLOUDY    27  21  78 S3        30.14S
6HR MIN TEMP:  27; 6HR MAX TEMP:  27;

SIREN          CLOUDY    29  23  78 S3        30.14S
6HR MIN TEMP:  29; 6HR MAX TEMP:  31;

CUMBERLAND     CLOUDY    28  21  74 S7        30.14S WCI  21
RICE LAKE      CLOUDY    28  22  78 SE7       30.16F WCI  21
6HR MIN TEMP:  28; 6HR MAX TEMP:  29;

CHETEK         CLOUDY    27  21  77 SE6       30.16S WCI  21
6HR MIN TEMP:  27; 6HR MAX TEMP:  29;

LADYSMITH      CLOUDY    27  22  82 SE3       30.18S
6HR MIN TEMP:  27; 6HR MAX TEMP:  28;

EAU CLAIRE     MOCLDY    28  19  69 SE7       30.17F WCI  21
6HR MIN TEMP:  28; 6HR MAX TEMP:  31;

MENOMONIE      CLOUDY    29  22  73 SE5       30.17F WCI  24
6HR MIN TEMP:  29; 6HR MAX TEMP:  32;

NEW RICHMOND   CLOUDY    29  23  79 SE8       30.15F WCI  21
6HR MIN TEMP:  29; 6HR MAX TEMP:  31;

OSCEOLA        CLOUDY    30  25  81 SE7       30.18S WCI  23
6HR MIN TEMP:  30; 6HR MAX TEMP:  32;

$$

WIZ003>005-009-010-017-018-280100-
NORTH CENTRAL WISCONSIN

CITY           SKY/WX    TMP DP  RH WIND       PRES   REMARKS
MANITOWISH WTR CLOUDY    23  19  86 SW5       30.14S WCI  17
6HR MIN TEMP:  22; 6HR MAX TEMP:  23;

ARBOR VITAE    CLOUDY    24  19  82 S6        30.14F WCI  17
6HR MIN TEMP:  24; 6HR MAX TEMP:  25;

WOODRUFF       CLOUDY    24  19  82 S6        30.14F WCI  17
6HR MIN TEMP:  24; 6HR MAX TEMP:  25;

RHINELANDER    CLOUDY    22  17  81 S6        30.16S WCI  14
6HR MIN TEMP:  22; 6HR MAX TEMP:  24;

EAGLE RIVER    CLOUDY    23  17  80 CALM      30.15F
6HR MIN TEMP:  23; 6HR MAX TEMP:  24;

LAND O LAKES   CLOUDY    24  19  83 S5        30.15F WCI  18
6HR MIN TEMP:  24; 6HR MAX TEMP:  25;

PHILLIPS       CLOUDY    24  19  83 SE3       30.14F
6HR MIN TEMP:  24; 6HR MAX TEMP:  25;

TOMAHAWK       CLOUDY    23  19  85 CALM      30.17F
6HR MIN TEMP:  23; 6HR MAX TEMP:  24;

MEDFORD        CLOUDY    23  19  86 SE5       30.16F WCI  17
MERRILL        CLOUDY    24  19  78 CALM      30.19S
6HR MIN TEMP:  24; 6HR MAX TEMP:  25;

$$

WIZ029-030-035-036-043>047-280100-
CENTRAL WISCONSIN

CITY           SKY/WX    TMP DP  RH WIND       PRES   REMARKS
WAUSAU         CLOUDY    24  20  84 CALM      30.18S
6HR MIN TEMP:  23; 6HR MAX TEMP:  25; 6HR PCP: TRACE;

MOSINEE        CLOUDY    25  23  93 CALM      30.20F
MARSHFIELD     CLOUDY    25  21  85 SE3       30.19S
6HR MIN TEMP:  25; 6HR MAX TEMP:  26;

STEVENS POINT  CLOUDY    23  19  87 CALM      30.21F
6HR MIN TEMP:  22; 6HR MAX TEMP:  23;

WAUPACA        CLOUDY    28  19  69 CALM      30.23S
6HR MIN TEMP:  27; 6HR MAX TEMP:  29;

WAUTOMA        CLOUDY    25  20  81 CALM      30.24R
6HR MIN TEMP:  25; 6HR MAX TEMP:  27;

WISC RAPIDS    CLOUDY    25  21  85 E3        30.22F
6HR MIN TEMP:  24; 6HR MAX TEMP:  26;

CAMP DOUGLAS   CLOUDY    27  27 100 E3        30.20F
$$

WIZ011>013-019>022-031-037>040-048>050-280100-
NORTHEAST WISCONSIN

CITY           SKY/WX    TMP DP  RH WIND       PRES   REMARKS
ANTIGO         CLOUDY    22  19  88 CALM      30.18S
6HR MIN TEMP:  22; 6HR MAX TEMP:  23;

SHAWANO        CLOUDY    26  18  71 CALM      30.24R
6HR MIN TEMP:  25; 6HR MAX TEMP:  29;

OCONTO         CLOUDY    19  17  92 CALM      30.25F
6HR MIN TEMP:  19; 6HR MAX TEMP:  27;

STURGEON BAY   PTCLDY    18  12  79 CALM      30.26S
6HR MIN TEMP:  18; 6HR MAX TEMP:  25;

GREEN BAY      MOCLDY    21  15  78 CALM      30.24F
6HR MIN TEMP:  21; 6HR MAX TEMP:  28;

MANITOWOC      CLOUDY    26  20  77 CALM      30.25S
6HR MIN TEMP:  26; 6HR MAX TEMP:  29; 6HR PCP: TRACE;

APPLETON       CLOUDY    27  16  63 VRB3      30.24R
CLINTONVILLE   CLOUDY    27  19  74 CALM      30.23S
OSHKOSH        CLOUDY    26  16  65 NE5       30.24R WCI  20
6HR MIN TEMP:  26; 6HR MAX TEMP:  28;

$$

WIZ032>034-041-042-053>061-280100-
SOUTHWEST WISCONSIN

CITY           SKY/WX    TMP DP  RH WIND       PRES   REMARKS
LA CROSSE      CLOUDY    30  22  72 SE7       30.20F WCI  23
6HR MIN TEMP:  30; 6HR MAX TEMP:  32;

SPARTA         CLOUDY    27  21  79 SE5       30.21F WCI  21
6HR MIN TEMP:  27; 6HR MAX TEMP:  28;

VIROQUA        CLOUDY    25  22  86 SE8       30.16F WCI  17
6HR MIN TEMP:  25; 6HR MAX TEMP:  27;

BOSCOBEL       CLOUDY    29  21  72 SE6       30.22F WCI  23
6HR MIN TEMP:  29; 6HR MAX TEMP:  30;

PRAIRIE DU CHI CLOUDY    29  21  73 E7        30.21F WCI  22
6HR MIN TEMP:  29; 6HR MAX TEMP:  31; 6HR PCP:  0.01;

PLATTEVILLE    CLOUDY    28  23  84 CALM      30.20F
6HR MIN TEMP:  27; 6HR MAX TEMP:  28;

$$

WIZ056-057-062-063-064-067-068-280100-
SOUTH CENTRAL WISCONSIN

CITY           SKY/WX    TMP DP  RH WIND       PRES   REMARKS
REEDSBURG      CLOUDY    26  24  94 CALM      30.21S FOG
6HR MIN TEMP:  26; 6HR MAX TEMP:  27;

BARABOO/DELLS  CLOUDY    26  24  92 CALM      30.21S FOG
6HR MIN TEMP:  26; 6HR MAX TEMP:  27;

LONE ROCK      CLOUDY    28  23  81 E3        30.23S
6HR MIN TEMP:  28; 6HR MAX TEMP:  30;

MINERAL POINT  CLOUDY    30  27  86 CALM      30.20F
MADISON        CLOUDY    27  22  81 CALM      30.22R
6HR MIN TEMP:  27; 6HR MAX TEMP:  29; 6HR PCP: TRACE;

MIDDLETON      CLOUDY    29  26  87 CALM      30.22S
6HR MIN TEMP:  28; 6HR MAX TEMP:  29;

WATERTOWN      CLOUDY    27  19  72 CALM      30.23R
6HR MIN TEMP:  27; 6HR MAX TEMP:  29;

MONROE         CLOUDY    28  28 100 CALM      30.20S FOG
JANESVILLE     CLOUDY    30  27  86 CALM      30.22R
$$

WIZ051-052-058>065-066-070>072-280100-
SOUTHEAST WISCONSIN

CITY           SKY/WX    TMP DP  RH WIND       PRES   REMARKS
MILWAUKEE      MOCLDY    27  16  63 NE7       30.24S WCI  19
6HR MIN TEMP:  26; 6HR MAX TEMP:  30;

WAUKESHA       CLOUDY    25  16  68 E5        30.24R WCI  19
MILWAUKEE/TIMM CLOUDY    27  16  63 E6        30.24S WCI  20
RACINE         MOCLDY    24  16  71 N3        30.26R
6HR MIN TEMP:  24; 6HR MAX TEMP:  30;

BURLINGTON     PTCLDY    22  15  74 E6        30.23S WCI  15
6HR MIN TEMP:  22; 6HR MAX TEMP:  30;

KENOSHA        CLEAR     23  17  78 NE5       30.24S WCI  17
6HR MIN TEMP:  23; 6HR MAX TEMP:  31;

FOND DU LAC    CLOUDY    26  17  68 NE5       30.24R WCI  20
6HR MIN TEMP:  26; 6HR MAX TEMP:  29;

SHEBOYGAN      CLOUDY    25  18  74 E3        30.24S
6HR MIN TEMP:  25; 6HR MAX TEMP:  28;

WEST BEND      CLOUDY    27  19  74 E5        30.23S WCI  21
JUNEAU         CLOUDY    26  19  74 CALM      30.24R
6HR MIN TEMP:  26; 6HR MAX TEMP:  28;

$$

LSZ147-162-280100-
LAKE SUPERIOR

STATION/POSITION TIME  TEMP    WIND        PRES    WAVE
                       AIR SEA DIR/SP/G            HT/PER
                 (UTC) (F)     (DEG/KT/KT) (MB)    (FT/S)
DEVILS ISLAND    0000   29     150/  2/  3 1022.7R
PORT WING        2300   30     170/  5/  6 1021.3
SAXON HARBOR     2300   29        CALM     1021.7F
$$

LMZ867-665-643>646-280100-
LAKE MICHIGAN

STATION/POSITION TIME  TEMP    WIND        PRES    WAVE
                       AIR SEA DIR/SP/G            HT/PER
                 (UTC) (F)     (DEG/KT/KT) (MB)    (FT/S)


USA.gov is the U.S. government's official web portal to all federal, state and local government web resources and services.